Location: ????????
(55.0559°N, 39.1270°E)
Time: 01:47:22
(UTC+00:00)

COSMOS 2428 - Pass Details

Date: 15 November 2025
Orbit: 847 x 852 km, 70.9° (Epoch: 12 December)

Event Time Altitude Azimuth Distance (km) Brightness Sun altitude
Exits shadow 03:21:04 18° 293° (WNW) 1,955 4.0 -13.3°
Maximum altitude 03:23:42 25° 331° (NNW) 1,650 3.9 -12.9°
Drops below altitude 10° 03:28:22 10° 26° (NNE) 2,484 5.3 -12.3°
Sets 03:31:17 0° 39° (NE) 3,422 6.2 -11.9°
